• In Deutschland
  • Länderverzeichnis
  • Für 7 Tage
  • Wassertemperatur
  • Satellitenkarten
  • Wetterkarte
  • Widgets
  • user-avatar
    Anmelden

    Stündliche Wetter Böblingen

    Heute, 22 Juni, Freitag

    Zeit Temperatur Niederschläge Wind Luftdruck Luftfeuchtigkeit
    00:00 +10°C° 0 mm 2 m/S 725 mmHg 69%
    01:00 +8°C° 0 mm 2 m/S 726 mmHg 73%
    02:00 +8°C° 0 mm 2 m/S 726 mmHg 76%
    03:00 +8°C° 0 mm 1 m/S 726 mmHg 79%
    04:00 +7°C° 0 mm 1 m/S 726 mmHg 82%
    05:00 +8°C° 0 mm 2 m/S 727 mmHg 78%
    06:00 +9°C° 0 mm 2 m/S 727 mmHg 75%
    07:00 +10°C° 0 mm 2 m/S 727 mmHg 71%
    08:00 +11°C° 0 mm 3 m/S 727 mmHg 66%
    09:00 +12°C° 0 mm 3 m/S 727 mmHg 61%
    10:00 +13°C° 0 mm 4 m/S 727 mmHg 56%
    11:00 +14°C° 0 mm 4 m/S 727 mmHg 57%
    12:00 +14°C° 0 mm 4 m/S 727 mmHg 58%
    13:00 +14°C° 0 mm 4 m/S 727 mmHg 58%
    14:00 +14°C° 0,1 mm 4 m/S 727 mmHg 58%
    15:00 +15°C° 0,1 mm 4 m/S 727 mmHg 58%
    16:00 +15°C° 0,1 mm 4 m/S 727 mmHg 58%
    17:00 +14°C° 0 mm 4 m/S 727 mmHg 62%
    18:00 +14°C° 0 mm 3 m/S 727 mmHg 65%
    19:00 +14°C° 0 mm 2 m/S 727 mmHg 69%
    20:00 +13°C° 0 mm 2 m/S 727 mmHg 74%
    21:00 +11°C° 0 mm 1 m/S 727 mmHg 78%
    22:00 +9°C° 0 mm 1 m/S 727 mmHg 83%
    23:00 +9°C° 0 mm 1 m/S 727 mmHg 85%

    Morgen, 23 Juni, Samstag

    Zeit Temperatur Niederschläge Wind Luftdruck Luftfeuchtigkeit
    00:00 +8°C° 0 mm 1 m/S 727 mmHg 87%
    01:00 +8°C° 0 mm 1 m/S 727 mmHg 88%
    02:00 +8°C° 0 mm 1 m/S 727 mmHg 90%
    03:00 +7°C° 0 mm 1 m/S 727 mmHg 91%
    04:00 +7°C° 0 mm 1 m/S 727 mmHg 92%
    05:00 +8°C° 0 mm 1 m/S 727 mmHg 88%
    06:00 +10°C° 0 mm 1 m/S 728 mmHg 84%
    07:00 +11°C° 0 mm 1 m/S 728 mmHg 80%
    08:00 +13°C° 0 mm 1 m/S 728 mmHg 74%
    09:00 +14°C° 0 mm 2 m/S 728 mmHg 67%
    10:00 +15°C° 0 mm 2 m/S 727 mmHg 61%
    11:00 +16°C° 0 mm 2 m/S 727 mmHg 56%
    12:00 +17°C° 0 mm 2 m/S 727 mmHg 51%
    13:00 +18°C° 0 mm 3 m/S 727 mmHg 47%
    14:00 +18°C° 0 mm 3 m/S 727 mmHg 48%
    15:00 +18°C° 0 mm 3 m/S 726 mmHg 50%
    16:00 +19°C° 0 mm 3 m/S 726 mmHg 51%
    17:00 +18°C° 0 mm 3 m/S 726 mmHg 57%
    18:00 +17°C° 0 mm 3 m/S 726 mmHg 62%
    19:00 +16°C° 0 mm 2 m/S 726 mmHg 68%
    20:00 +14°C° 0 mm 2 m/S 726 mmHg 72%
    21:00 +13°C° 0 mm 1 m/S 726 mmHg 75%
    22:00 +12°C° 0 mm 1 m/S 726 mmHg 79%
    23:00 +11°C° 0,2 mm 1 m/S 726 mmHg 83%

    übermorgen, 24 Juni, Sonntag

    Zeit Temperatur Niederschläge Wind Luftdruck Luftfeuchtigkeit
    00:00 +10°C° 0,2 mm 0 m/S 726 mmHg 86%
    01:00 +10°C° 0,2 mm 0 m/S 725 mmHg 89%
    02:00 +9°C° 0,1 mm 0 m/S 725 mmHg 90%
    03:00 +9°C° 0,1 mm 0 m/S 725 mmHg 91%
    04:00 +9°C° 0,1 mm 0 m/S 725 mmHg 92%
    05:00 +10°C° 0 mm 0 m/S 725 mmHg 89%
    06:00 +11°C° 0 mm 0 m/S 725 mmHg 87%
    07:00 +11°C° 0 mm 0 m/S 725 mmHg 84%
    08:00 +14°C° 0,1 mm 1 m/S 725 mmHg 79%
    09:00 +15°C° 0,1 mm 1 m/S 725 mmHg 74%
    10:00 +16°C° 0,1 mm 2 m/S 725 mmHg 69%
    11:00 +17°C° 0,1 mm 2 m/S 725 mmHg 67%
    12:00 +17°C° 0,1 mm 2 m/S 724 mmHg 66%
    13:00 +17°C° 0,1 mm 2 m/S 724 mmHg 65%
    14:00 +18°C° 0,1 mm 2 m/S 724 mmHg 64%
    15:00 +18°C° 0,1 mm 2 m/S 724 mmHg 63%
    16:00 +19°C° 0,1 mm 2 m/S 724 mmHg 62%
    17:00 +18°C° 0,1 mm 2 m/S 724 mmHg 66%
    18:00 +17°C° 0,1 mm 2 m/S 724 mmHg 70%
    19:00 +17°C° 0,1 mm 2 m/S 724 mmHg 74%
    20:00 +15°C° 0 mm 2 m/S 724 mmHg 79%
    21:00 +13°C° 0 mm 1 m/S 724 mmHg 84%
    22:00 +12°C° 0 mm 1 m/S 724 mmHg 89%
    23:00 +11°C° 0 mm 1 m/S 724 mmHg 90%

    25 Juni, Montag

    Zeit Temperatur Niederschläge Wind Luftdruck Luftfeuchtigkeit
    00:00 +11°C° 0 mm 1 m/S 724 mmHg 91%
    01:00 +10°C° 0 mm 1 m/S 724 mmHg 92%
    02:00 +10°C° 0 mm 1 m/S 724 mmHg 93%
    03:00 +10°C° 0 mm 1 m/S 724 mmHg 94%
    04:00 +10°C° 0 mm 1 m/S 724 mmHg 95%
    05:00 +11°C° 0 mm 1 m/S 724 mmHg 92%
    06:00 +12°C° 0 mm 1 m/S 724 mmHg 89%
    07:00 +13°C° 0 mm 1 m/S 724 mmHg 86%
    08:00 +14°C° 0 mm 2 m/S 724 mmHg 80%
    09:00 +16°C° 0 mm 2 m/S 724 mmHg 73%
    10:00 +17°C° 0 mm 2 m/S 724 mmHg 67%
    11:00 +18°C° 0,1 mm 3 m/S 724 mmHg 63%
    12:00 +19°C° 0,1 mm 3 m/S 724 mmHg 60%
    13:00 +20°C° 0,1 mm 3 m/S 724 mmHg 56%
    14:00 +20°C° 0 mm 3 m/S 724 mmHg 56%
    15:00 +20°C° 0 mm 3 m/S 724 mmHg 56%
    16:00 +20°C° 0 mm 3 m/S 724 mmHg 56%
    17:00 +19°C° 0 mm 3 m/S 724 mmHg 61%
    18:00 +19°C° 0 mm 3 m/S 724 mmHg 66%
    19:00 +18°C° 0 mm 3 m/S 724 mmHg 71%
    20:00 +16°C° 0 mm 2 m/S 724 mmHg 77%
    21:00 +15°C° 0 mm 2 m/S 724 mmHg 83%
    22:00 +13°C° 0 mm 2 m/S 724 mmHg 88%
    23:00 +12°C° 0 mm 1 m/S 724 mmHg 90%

    26 Juni, Dienstag

    Zeit Temperatur Niederschläge Wind Luftdruck Luftfeuchtigkeit
    00:00 +12°C° 0 mm 1 m/S 724 mmHg 91%
    01:00 +12°C° 0 mm 1 m/S 724 mmHg 92%
    02:00 +11°C° 0 mm 1 m/S 724 mmHg 93%
    03:00 +11°C° 0 mm 1 m/S 724 mmHg 94%
    04:00 +10°C° 0 mm 1 m/S 723 mmHg 94%
    05:00 +12°C° 0 mm 1 m/S 724 mmHg 90%
    06:00 +13°C° 0 mm 2 m/S 724 mmHg 86%
    07:00 +14°C° 0 mm 2 m/S 724 mmHg 82%
    08:00 +16°C° 0 mm 3 m/S 724 mmHg 74%
    09:00 +18°C° 0 mm 3 m/S 724 mmHg 65%
    10:00 +20°C° 0 mm 4 m/S 724 mmHg 57%
    11:00 +21°C° 0 mm 4 m/S 724 mmHg 55%
    12:00 +22°C° 0 mm 4 m/S 724 mmHg 52%
    13:00 +23°C° 0 mm 4 m/S 724 mmHg 50%
    14:00 +23°C° 0 mm 4 m/S 724 mmHg 50%
    15:00 +23°C° 0 mm 4 m/S 724 mmHg 51%
    16:00 +23°C° 0 mm 4 m/S 724 mmHg 51%
    17:00 +22°C° 0 mm 4 m/S 724 mmHg 56%
    18:00 +21°C° 0 mm 3 m/S 724 mmHg 61%
    19:00 +20°C° 0 mm 3 m/S 724 mmHg 67%
    20:00 +18°C° 0 mm 2 m/S 724 mmHg 71%
    21:00 +16°C° 0 mm 2 m/S 724 mmHg 75%
    22:00 +15°C° 0 mm 2 m/S 724 mmHg 80%
    23:00 +14°C° 0 mm 2 m/S 724 mmHg 82%

    27 Juni, Mittwoch

    Zeit Temperatur Niederschläge Wind Luftdruck Luftfeuchtigkeit
    00:00 +13°C° 0 mm 2 m/S 724 mmHg 83%
    01:00 +13°C° 0 mm 2 m/S 724 mmHg 85%
    02:00 +12°C° 0 mm 1 m/S 724 mmHg 86%
    03:00 +12°C° 0 mm 1 m/S 724 mmHg 87%
    04:00 +12°C° 0 mm 1 m/S 724 mmHg 88%
    05:00 +13°C° 0 mm 1 m/S 724 mmHg 83%
    06:00 +15°C° 0 mm 2 m/S 724 mmHg 79%
    07:00 +16°C° 0 mm 2 m/S 724 mmHg 74%
    08:00 +18°C° 0 mm 2 m/S 724 mmHg 68%
    09:00 +20°C° 0 mm 3 m/S 725 mmHg 62%
    10:00 +21°C° 0 mm 4 m/S 725 mmHg 56%
    11:00 +22°C° 0 mm 4 m/S 724 mmHg 55%
    12:00 +23°C° 0 mm 4 m/S 724 mmHg 53%
    13:00 +25°C° 0 mm 4 m/S 724 mmHg 51%
    14:00 +25°C° 0 mm 4 m/S 724 mmHg 52%
    15:00 +25°C° 0 mm 4 m/S 724 mmHg 52%
    16:00 +25°C° 0 mm 4 m/S 724 mmHg 53%
    17:00 +23°C° 0 mm 4 m/S 724 mmHg 58%
    18:00 +22°C° 0 mm 3 m/S 724 mmHg 63%
    19:00 +22°C° 0 mm 3 m/S 724 mmHg 68%
    20:00 +20°C° 0 mm 3 m/S 724 mmHg 73%
    21:00 +18°C° 0 mm 2 m/S 724 mmHg 77%
    22:00 +17°C° 0 mm 2 m/S 724 mmHg 82%
    23:00 +16°C° 0 mm 2 m/S 723 mmHg 84%
    Mehr zeigen